Regional Weather Roundup
Issued by NWS Cleveland, OH

Home | Current Version | Previous Version | Graphics & Text | Print | Product List | Glossary On
Versions: 1 2 3 4 5 6 7 8 9 10 11 12 13 14 15 16 17 18 19 20 21 22 23 24 25 26 27 28 29 30 31 32 33 34 35 36 37 38 39 40 41 42 43 44 45 46 47 48 49 50
000
ASUS41 KCLE 252310
RWRCLE
OHIO REGIONAL WEATHER ROUNDUP
NATIONAL WEATHER SERVICE CLEVELAND, OH
700 PM EDT MON JUL 25 2016

NOTE: "FAIR" INDICATES FEW OR NO CLOUDS BELOW 12,000 FEET WITH NO
SIGNIFICANT WEATHER AND/OR OBSTRUCTIONS TO VISIBILITY.

OHZ001>008-015>018-024>027-034-035-043-044-260000-
   NORTHWEST OHIO

CITY           SKY/WX    TMP DP  RH WIND       PRES   REMARKS
DEFIANCE       CLOUDY    88  63  43 NW8       29.95S
FINDLAY        SUNNY     88  66  48 NW7       29.93S HX  90
TOLEDO EXPRESS SUNNY     85  67  54 W12       29.93S
TOLEDO EXEC    SUNNY     88  66  48 W10       29.93S HX  90
LIMA           MOSUNNY   83  71  67 W9        29.96S
$$

OHZ009>014-019>023-028>033-038-089-260000-
   NORTHEAST OHIO

CITY           SKY/WX    TMP DP  RH WIND       PRES   REMARKS
CLE-HOPKINS    MOSUNNY   89  62  40 W14       29.94R
CLE-LAKEFRONT  SUNNY     84  73  69 W10       29.90S HX  90
CUY CO. ARPT   MOSUNNY   86  73  66 W15       29.93S HX  93
LORAIN-ELYRIA  SUNNY     84  68  58 NW10      29.93S
ASHTABULA      CLOUDY    82  69  64 W9        29.92F
AKRON-CANTON   PTSUNNY   88  64  44 W9        29.93F
WOOSTER        SUNNY     85  65  51 W9        29.95S
MANSFIELD      MOSUNNY   88  65  46 W6        29.96S HX  90
YOUNGSTOWN     PTSUNNY   84  70  62 N9        29.92S
$$

OHZ042-051>053-060>062-070>072-077>081-260000-
  SOUTHWEST OHIO

CITY           SKY/WX    TMP DP  RH WIND       PRES   REMARKS
CINC-COVINGTON CLOUDY    85  76  74 S5        29.97F HX  94
CINC-LUNKEN    PTSUNNY   90  69  50 NE3       29.95S HX  94
HAMILTON       CLOUDY    89  69  51 NW7       29.97S HX  93
DAYTON         PTSUNNY   87  70  56 W9        29.98S HX  92
WRIGHT-PAT AFB SUNNY     88  69  53 W10       29.96R HX  93
DAYTON GENERAL MOSUNNY   88  67  49 W8        29.97R HX  91
WILMINGTON     MOSUNNY   90  66  45 NW7       29.97S HX  92
$$

OHZ036-037-039>041-045>050-054>059-063>069-073>076-082>088-260000-
  CENTRAL AND SOUTHEAST OHIO

CITY           SKY/WX    TMP DP  RH WIND       PRES   REMARKS
COLUMBUS       PTSUNNY   88  66  48 W8        29.94R HX  90
OSU AIRPORT    MOSUNNY   85  70  60 N5        29.95S
BOLTON FIELD   SUNNY     90  68  48 W8        29.96S HX  93
RICKENBACK AFB MOSUNNY   90  67  46 NW8G17    29.94S HX  92
NEWARK         SUNNY     89  66  46 NW8       29.94S HX  91
MARION         PTSUNNY   87  65  47 W8        29.96S
LANCASTER      MOSUNNY   88  70  55 W8        29.95R HX  93
ZANESVILLE     MOSUNNY   92  69  47 NW7       29.93S HX  97
NEW PHILLY     SUNNY     93  65  39 NW9       29.93S HX  95
$$




USA.gov is the U.S. government's official web portal to all federal, state and local government web resources and services.